Regional Weather Roundup
Issued by NWS

Home | Current Version | Previous Version | Graphics & Text | Print | Product List | Glossary Off
Versions: 1 2 3 4 5 6 7 8 9 10 11 12 13 14 15 16 17 18 19 20 21 22 23 24 25 26 27 28 29 30 31 32 33 34 35 36 37 38 39 40 41 42 43 44 45 46 47 48 49 50

032
ASUS43 KMPX 240110
RWRMN
WEATHER ROUNDUP FOR MINNESOTA
NATIONAL WEATHER SERVICE TWIN CITIES/CHANHASSEN MN
800 PM CDT WED AUG 23 2017


NOTE: "FAIR" INDICATES FEW OR NO CLOUDS BELOW 12,000 FEET WITH NO
SIGNIFICANT WEATHER AND/OR OBSTRUCTIONS TO VISIBILITY. N/A MEANS
CURRENT SKY AND/OR WEATHER CONDITIONS ARE NOT AVAILABLE.

MNZ060>063-068>070-240200-
   Twin Cities Metro

CITY           SKY/WX    TMP DP  RH WIND       PRES   REMARKS
TWIN CITIES    PTCLDY    72  49  44 NE6       30.02S
ST PAUL        CLEAR     70  53  54 NE7       30.02F
CRYSTAL        CLEAR     69  50  50 NE5       30.01S
BLAINE         CLEAR     70  55  60 N6        30.03S
LAKEVILLE      CLEAR     63  57  82 CALM      30.03R
EDEN PRAIRIE   CLEAR     72  52  49 N3        30.01S
SOUTH ST PAUL  CLEAR     70  51  50 CALM      30.02S
LAKE ELMO      FAIR      64  54  68 NE3       30.04S
$$
MNZ001>005-007-008-013>017-022>024-027-028-240200-
   Northwest Minnesota

CITY           SKY/WX    TMP DP  RH WIND       PRES   REMARKS
BEMIDJI        LGT RAIN  54  54 100 E3        30.09F
HALLOCK        CLOUDY    55  54  94 E7        30.07S
ROSEAU         CLOUDY    54  48  82 CALM      30.10S
WARROAD        CLOUDY    54  50  87 CALM      30.10F
THIEF RVR FALL CLOUDY    55  54  96 E10       30.08F
CROOKSTON      LGT RAIN  57  52  82 E9        30.08R
FOSSTON        RAIN      55  48  76 E5        30.08S
DETROIT LAKES  CLOUDY    68  50  52 SE3       30.04R
MOORHEAD       MOCLDY    72  54  53 CALM      30.00S
PARK RAPIDS    CLOUDY    63  51  65 NE14      30.06R
MAHNOMEN       CLOUDY    60  49  67 E18       30.05R
$$
MNZ006-009>011-018-025>026-240200-
   North Central Minnesota

CITY           SKY/WX    TMP DP  RH WIND       PRES   REMARKS
BAUDETTE       LGT RAIN  54  52  93 NW3       30.09F
FLAG ISLAND    PTCLDY    57  48  72 CALM      30.08F
INTL FALLS     CLOUDY    57  50  77 NW5       30.08R
WASKISH        RAIN      52  52 100 CALM      30.10S
BIG FORK       LGT RAIN  55  54  94 CALM      30.10S
LONGVILLE      LGT RAIN  57  54  88 NE8       30.09R
GRAND RAPIDS   RAIN      56  54  93 NW5       30.12R
CRANE LAKE     CLOUDY    54  52  94 CALM      30.09S
ORR            MOCLDY    54  48  82 CALM      30.06R
COOK           CLOUDY    55  52  88 CALM      30.08R
WALKER         LGT RAIN  56  53  89 NE8G16    30.10R
$$
MNZ012-019>021-037-240200-
   Northeast Minnesota

CITY           SKY/WX    TMP DP  RH WIND       PRES   REMARKS
DULUTH         CLOUDY    60  50  69 N3        30.06S
ELY            CLOUDY    57  45  62 CALM      30.07F
HIBBING        LGT RAIN  56  51  84 W6        30.07S
EVELETH        CLOUDY    58  47  67 CALM      30.08F
DULUTH HARBOR  CLOUDY    66  52  59 CALM      30.06S
TWO HARBORS    CLOUDY    61  55  82 CALM      30.05S
GRAND MARAIS     N/A     57  48  72 CALM      30.07R
G MARAIS ARPRT PTCLDY    46  37  71 CALM      30.10R
$$
MNZ029>031-032-039>041-046>048-054>057-064-240200-
   West Central Minnesota

CITY           SKY/WX    TMP DP  RH WIND       PRES   REMARKS
FERGUS FALLS   CLOUDY    70  52  52 SE5       29.99S
WHEATON        CLEAR     64  55  72 SE5       29.99F
MORRIS         CLEAR     66  57  72 SE6       30.00R
ALEXANDRIA     CLEAR     69  52  54 SE5       30.03S
ELBOW LAKE     FAIR      69  55  60 SE5       30.01S
WADENA         CLOUDY    63  55  77 CALM      30.03R
GLENWOOD       CLEAR     68  55  64 CALM      30.03S
APPLETON       CLEAR     66  57  72 SE5       29.99S
BENSON         CLEAR     70  54  56 S3        30.02S
ORTONVILLE     CLEAR     70  57  64 MISG      29.98F
MADISON        CLEAR     70  59  68 SE7       29.99F
WILLMAR        FAIR      66  57  72 SE3       30.03S
$$
MNZ033>034-036-042>043-049>051-058-059-240200-
   Central Minnesota

CITY           SKY/WX    TMP DP  RH WIND       PRES   REMARKS
ST CLOUD       CLEAR     67  55  65 E3        30.03S
SAUK CENTRE    FAIR      67  54  63 NE3       30.03R HAZE
PAYNESVILLE    CLEAR     69  56  63 S3        30.03S
AITKIN         CLOUDY    61  52  72 NE9       30.06R
PINE RIVER     CLOUDY    61  48  63 NE8       30.10R
BRAINERD       CLOUDY    63  53  70 NE7       30.05S
STAPLES        PTCLDY    64  52  63 E5        30.04R
LONG PRAIRIE   FAIR      66  59  77 NE3       30.03S
LITTLE FALLS   PTCLDY    66  52  59 E3        30.04S
LITCHFIELD     CLEAR     68  55  64 CALM      30.03S
BUFFALO        CLEAR     69  56  62 NE3       30.03S
MAPLE LAKE     CLEAR     68  56  65 NE3       30.03S
HUTCHINSON     PTCLDY    66  60  81 CALM      30.03S
$$
MNZ037-044-045-052-053-240200-
   East Central Minnesota

CITY           SKY/WX    TMP DP  RH WIND       PRES   REMARKS
PRINCETON      CLEAR     68  55  64 NE5       30.04R
MORA           PTCLDY    61  52  72 CALM      30.06S
CAMBRIDGE      CLEAR     68  54  60 CALM      30.04S
RUSH CITY      CLEAR     62  55  78 NE3       30.04S
MOOSE LAKE     LGT RAIN  59  54  82 CALM      30.05R
HINCKLEY       FAIR      61  55  82 N3        30.06R
CLOQUET        RAIN      61  50  67 N3        30.08R
MCGREGOR       CLOUDY    59  54  82 N7        30.08R
$$
MNZ071>073-080-081-089-090-097-098-240200-
   Southwest Minnesota

CITY           SKY/WX    TMP DP  RH WIND       PRES   REMARKS
MONTEVIDEO     CLEAR     68  55  64 CALM      30.00F
GRANITE FALLS  PTCLDY    69  61  74 SE5       30.02S
CANBY          CLEAR     69  59  72 CALM      30.01S
MARSHALL       MOCLDY    71  57  61 SE7       30.01S
REDWOOD FALLS  CLOUDY    69  55  60 SE6       30.01F
OLIVIA         CLEAR     70  59  68 SE3       30.01S
PIPESTONE      CLOUDY    72  61  68 S5        30.02S
WINDOM         CLEAR     70  57  64 SE3       30.03S
WORTHINGTON    CLOUDY    68  61  78 SE3       30.03S
JACKSON        MOCLDY    66  59  77 CALM      30.04S
TRACY          CLOUDY    70  62  74 CALM      30.02S
SLAYTON        CLOUDY    69  57  67 SE3       30.04S
$$
MNZ065>067-074>077-082>085-091>093-240200-
   South Central Minnesota

CITY           SKY/WX    TMP DP  RH WIND       PRES   REMARKS
MANKATO        CLEAR     69  55  60 SE3       30.03F
NEW ULM        CLEAR     68  54  60 SE5       30.02S
ST JAMES       CLOUDY    68  57  68 E3        30.03S
FAIRMONT       CLOUDY    69  60  73 S3        30.03F
GLENCOE        CLEAR     68  60  76 CALM      30.02S
FARIBAULT      CLEAR     64  61  88 CALM      30.04S
OWATONNA       CLEAR     63  57  82 CALM      30.04S
WASECA         CLEAR     63  59  88 CALM      30.05S
ALBERT LEA     CLEAR     66  61  82 CALM      30.04S
$$
MNZ078>079-086>088-094>096-240200-
   Southeast Minnesota

CITY           SKY/WX    TMP DP  RH WIND       PRES   REMARKS
ROCHESTER      CLEAR     65  54  67 NW5       30.05S
RED WING       MIX PCPN  66  54  63 CALM      30.02S
STANTON        CLEAR     66  59  79 CALM      30.01S
DODGE CENTER   CLEAR     64  55  72 CALM      30.05S
WINONA         CLEAR     66  55  68 CALM      30.03S
AUSTIN         CLEAR     68  52  56 CALM      30.04S
PRESTON        CLEAR     66  53  62 CALM      30.05S
$$
ABBREVIATIONS USED IN REMARKS
   TC - TEMPERATURES IN CELSIUS
  WCI - WIND CHILL INDEX
   HX - HEAT INDEX
  VSB - VISIBILITY
$$




USA.gov is the U.S. government's official web portal to all federal, state and local government web resources and services.